Simultaneous Nadir Overpasses (SNOs) Predictions

Prediction of SNOs between AQUA and METOP-A Satellite Orbit:

Table of predicted SNOs for the next 14.0 days since TLE Epoch: 1/16/2021
Index Date (AQUA) Time (AQUA) Lat,Lon (AQUA) SZA (AQUA ) Date (METOP-A) Time (METOP-A) Lat,Lon (METOP-A) SZA (METOP-A ) Distance(km) Time Diff (sec)
1 01/18/2021 14:05:07 -76.62, 135.44 82.56 01/18/2021 14:03:59 -76.57, 132.94 82.43 64.71 68
2 01/18/2021 14:54:41 76.96, -58.12 97.84 01/18/2021 14:54:30 76.97, -58.23 97.85 3.07 11
3 01/18/2021 15:44:08 -77.00, 109.39 82.13 01/18/2021 15:45:11 -77.00, 109.23 82.13 3.98 63
4 01/21/2021 09:39:28 -76.93,-159.21 82.79 01/21/2021 09:38:15 -76.87,-159.60 82.80 11.93 73
5 01/21/2021 10:28:55 76.99, 8.21 97.28 01/21/2021 10:28:51 76.99, 8.21 97.28 0.29 4
6 01/21/2021 11:18:22 -77.02, 175.73 82.70 01/21/2021 11:19:32 -77.03, 175.68 82.70 1.51 70
7 01/24/2021 05:13:42 -76.96, -92.88 83.40 01/24/2021 05:12:34 -76.99, -92.81 83.36 3.28 68
8 01/24/2021 06:03:10 77.03, 74.52 96.68 01/24/2021 06:03:13 77.02, 74.65 96.66 3.49 3
9 01/24/2021 06:52:40 -77.19,-118.47 83.14 01/24/2021 06:53:51 -77.19,-117.33 83.23 28.01 71
10 01/27/2021 00:47:57 -77.00, -26.57 84.05 01/27/2021 00:46:57 -76.97, -26.54 84.06 3.68 60
11 01/27/2021 01:37:24 77.02, 140.98 95.98 01/27/2021 01:37:36 77.00, 140.91 95.96 3.26 12
12 01/27/2021 02:27:01 -77.50, -53.27 83.45 01/27/2021 02:28:06 -77.52, -49.60 83.68 88.22 65
13 01/29/2021 20:22:11 -76.99, 39.89 84.79 01/29/2021 20:21:19 -76.99, 39.90 84.78 0.55 52
14 01/29/2021 21:11:38 77.02,-152.57 95.24 01/29/2021 21:11:58 77.02,-152.66 95.24 2.20 20



Historial Predications of SNOs between AQUA and METOP-A
